Weather History for Wright-Patt AFB, OH

Change the Weather History Date:

Friday, February 15, 2013

  Actual Average Record
Temperature  
Mean Temperature 31 °F -  
Max Temperature 37 °F 40 °F 66 °F (2005)
Min Temperature 24 °F 23 °F -7 °F (2007)
Degree Days  
Heating Degree Days 34    
Moisture  
Dew Point 27 °F    
Average Humidity 82    
Maximum Humidity 93    
Minimum Humidity 70    
Precipitation  
Precipitation 0.03 in - - ()
Sea Level Pressure  
Sea Level Pressure 30.09 in    
Wind  
Wind Speed 6 mph (WNW)    
Max Wind Speed 14 mph    
Max Gust Speed 21 mph    
Visibility 6 miles    
Events Snow    
Averages and records for this station are not official NWS values.
T = Trace of Precipitation, MM = Missing Value Source: NWS Daily Summary

Daily Weather History Graph

Daily Weather History Graph

Search for Another Location

Airport:

Trip Planner

Search our weather history database for the weather conditions in past years. The results will help you decide how hot, cold, wet, or windy it might be!

Date:

Astronomy

Feb. 15, 2013 Rise Set
Actual Time 7:28 AM EST 6:12 PM EST
Civil Twilight 7:00 AM EST 6:40 PM EST
Nautical Twilight 6:29 AM EST 7:12 PM EST
Astronomical Twilight 5:57 AM EST 7:43 PM EST
Moon 10:04 AM EST (2/15) No Moon Set
Length of Visible Light 11h 39m
Length of Day
10h 44m
Waxing Crescent, 30% of the Moon is Illuminated
Feb 15
Waxing Crescent
Feb 17
First Quarter
Feb 25
Full
Mar 4
Last Quarter
Mar 11
New

Hourly Weather History & Observations

Time (EST) Temp. Windchill Dew Point Humidity Pressure Visibility Wind Dir Wind Speed Gust Speed Precip Events Conditions
12:55 AM 29.5 °F 22.5 °F 24.3 °F 81% 30.00 in 10.0 mi SW 6.9 mph - N/A   Clear
1:55 AM 25.9 °F 19.2 °F 22.8 °F 88% 30.00 in 10.0 mi SW 5.8 mph - N/A   Clear
2:55 AM 28.2 °F 22.0 °F 24.8 °F 87% 30.00 in 10.0 mi SSW 5.8 mph - N/A   Clear
3:55 AM 28.8 °F 25.0 °F 24.8 °F 85% 30.00 in 10.0 mi SSW 3.5 mph - N/A   Partly Cloudy
4:55 AM 27.3 °F - 24.1 °F 88% 30.01 in 10.0 mi Calm Calm - N/A   Mostly Cloudy
5:55 AM 29.5 °F - 25.5 °F 85% 30.04 in 10.0 mi Calm Calm - N/A   Overcast
6:55 AM 29.8 °F 24.9 °F 25.5 °F 84% 30.04 in 10.0 mi South 4.6 mph - N/A   Overcast
7:55 AM 30.4 °F 26.9 °F 26.4 °F 85% 30.06 in 10.0 mi SSW 3.5 mph - N/A   Overcast
8:55 AM 32.2 °F 28.9 °F 28.4 °F 86% 30.09 in 7.0 mi SW 3.5 mph - N/A   Overcast
9:55 AM 34.7 °F 28.1 °F 28.8 °F 79% 30.08 in 10.0 mi SSW 8.1 mph - N/A   Overcast
10:55 AM 36.1 °F 33.5 °F 28.2 °F 73% 30.08 in 10.0 mi SSW 3.5 mph - N/A   Overcast
11:12 AM 35.6 °F 31.7 °F 28.4 °F 75% 30.08 in 1.5 mi West 4.6 mph - N/A Snow Light Snow Showers
11:24 AM 33.8 °F 27.7 °F 30.2 °F 87% 30.08 in 1.0 mi NW 6.9 mph - N/A Snow Light Snow Showers
11:29 AM 33.8 °F 27.7 °F 30.2 °F 87% 30.09 in 1.8 mi NW 6.9 mph - N/A Snow Light Snow Showers
11:48 AM 32.0 °F 26.4 °F 28.4 °F 87% 30.09 in 4.0 mi NW 5.8 mph - N/A Snow Light Snow
11:55 AM 32.9 °F 26.7 °F 29.3 °F 87% 30.09 in 6.0 mi NW 6.9 mph - 0.01 in Snow Light Snow
12:11 PM 32.0 °F 25.6 °F 28.4 °F 87% 30.09 in 2.0 mi NW 6.9 mph - N/A Snow Light Snow
12:27 PM 32.0 °F 25.6 °F 30.2 °F 93% 30.09 in 1.5 mi WNW 6.9 mph - N/A Snow Light Snow
12:41 PM 32.0 °F 27.5 °F 30.2 °F 93% 30.08 in 6.0 mi NW 4.6 mph - N/A Snow Light Snow
12:45 PM 32.0 °F 26.4 °F 28.4 °F 87% 30.08 in 7.0 mi NW 5.8 mph - N/A Snow Light Snow
12:55 PM 33.1 °F 28.7 °F 29.1 °F 85% 30.08 in 7.0 mi Variable 4.6 mph - 0.01 in Snow Light Snow
1:15 PM 35.6 °F 29.9 °F 30.2 °F 81% 30.07 in 10.0 mi WNW 6.9 mph - N/A   Mostly Cloudy
1:17 PM 35.6 °F 30.7 °F 28.4 °F 75% 30.07 in 10.0 mi WNW 5.8 mph - N/A   Mostly Cloudy
1:36 PM 35.6 °F 29.9 °F 28.4 °F 75% 30.07 in 10.0 mi NW 6.9 mph - N/A   Mostly Cloudy
1:55 PM 37.0 °F 29.8 °F 29.3 °F 74% 30.07 in 10.0 mi WNW 10.4 mph - 0.00 in   Mostly Cloudy
2:25 PM 37.4 °F 31.4 °F 28.4 °F 70% 30.06 in 10.0 mi West 8.1 mph - N/A   Mostly Cloudy
2:47 PM 37.4 °F 28.9 °F 28.4 °F 70% 30.06 in 1.0 mi NW 13.8 mph 19.6 mph N/A Snow Light Snow
2:55 PM 34.9 °F 27.1 °F 29.8 °F 82% 30.06 in 1.0 mi NW 10.4 mph 19.6 mph 0.00 in Snow Light Snow
3:03 PM 33.8 °F 28.6 °F 30.2 °F 87% 30.06 in 4.0 mi WNW 5.8 mph - N/A Snow Light Snow
3:12 PM 33.8 °F 29.6 °F 30.2 °F 87% 30.06 in 8.0 mi NW 4.6 mph - N/A   Mostly Cloudy
3:23 PM 35.6 °F 30.7 °F 30.2 °F 81% 30.06 in 2.5 mi NW 5.8 mph - N/A Snow Light Snow
3:29 PM 35.6 °F 27.5 °F 30.2 °F 81% 30.07 in 0.5 mi WNW 11.5 mph - N/A Snow Snow
3:33 PM 33.8 °F 25.8 °F 28.4 °F 81% 30.08 in 0.5 mi WNW 10.4 mph 19.6 mph N/A Snow Snow
3:49 PM 32.0 °F 24.8 °F 26.6 °F 80% 30.08 in 1.5 mi West 8.1 mph - N/A Snow Light Snow
3:55 PM 32.5 °F 25.5 °F 27.0 °F 80% 30.09 in 2.0 mi West 8.1 mph - 0.00 in Snow Light Snow
4:09 PM 33.8 °F 29.6 °F 28.4 °F 81% 30.09 in 5.0 mi NW 4.6 mph - N/A Snow Light Snow
4:26 PM 33.8 °F 30.8 °F 28.4 °F 81% 30.09 in 6.0 mi NW 3.5 mph - N/A Snow Light Snow
4:35 PM 32.0 °F 24.8 °F 28.4 °F 87% 30.09 in 0.5 mi WNW 8.1 mph - N/A Snow Snow
4:42 PM 32.0 °F 22.1 °F 28.4 °F 87% 30.09 in 7.0 mi NW 13.8 mph - N/A Snow Light Snow
4:55 PM 32.0 °F 25.6 °F 27.7 °F 84% 30.10 in 7.0 mi WNW 6.9 mph - 0.01 in   Mostly Cloudy
5:09 PM 32.0 °F 23.6 °F 28.4 °F 87% 30.10 in 4.0 mi NW 10.4 mph - N/A Snow Light Snow
5:17 PM 32.0 °F 22.1 °F 28.4 °F 87% 30.11 in 6.0 mi NNW 13.8 mph 20.7 mph N/A Snow Light Snow
5:36 PM 32.0 °F 22.1 °F 26.6 °F 80% 30.11 in 7.0 mi NNW 13.8 mph 20.7 mph N/A   Overcast
5:50 PM 30.2 °F 20.8 °F 26.6 °F 86% 30.12 in 3.0 mi NNW 11.5 mph - N/A Snow Light Snow
5:55 PM 30.4 °F 20.0 °F 25.7 °F 83% 30.12 in 3.0 mi NNW 13.8 mph - 0.00 in Snow Light Snow
6:05 PM 30.2 °F 21.3 °F 24.8 °F 80% 30.13 in 7.0 mi NNW 10.4 mph - N/A Snow Light Snow
6:21 PM 30.2 °F 20.8 °F 24.8 °F 80% 30.14 in 10.0 mi NNW 11.5 mph - N/A   Mostly Cloudy
6:45 PM 30.2 °F 22.6 °F 23.0 °F 75% 30.14 in 10.0 mi NW 8.1 mph - N/A   Mostly Cloudy
6:55 PM 29.8 °F 22.2 °F 23.2 °F 76% 30.14 in 10.0 mi NNW 8.1 mph - 0.00 in   Mostly Cloudy
7:55 PM 29.8 °F 23.0 °F 22.8 °F 75% 30.15 in 10.0 mi WNW 6.9 mph - N/A   Mostly Cloudy
8:55 PM 28.0 °F 21.7 °F 21.9 °F 78% 30.16 in 10.0 mi WNW 5.8 mph - N/A   Partly Cloudy
9:55 PM 27.3 °F 19.9 °F 19.8 °F 73% 30.17 in 10.0 mi West 6.9 mph - N/A   Partly Cloudy
10:55 PM 26.1 °F 17.6 °F 17.4 °F 70% 30.17 in 10.0 mi WNW 8.1 mph - N/A   Clear
11:55 PM 24.4 °F 17.5 °F 17.1 °F 73% 30.17 in 10.0 mi WNW 5.8 mph - N/A   Clear